Regional Weather Roundup
Issued by NWS

Home | Current Version | Previous Version | Graphics & Text | Print | Product List | Glossary Off
Versions: 1 2 3 4 5 6 7 8 9 10 11 12 13 14 15 16 17 18 19 20 21 22 23 24 25 26 27 28 29 30 31 32 33 34 35 36 37 38 39 40 41 42 43 44 45 46 47 48 49 50

000
ASUS43 KDMX 290208
RWRIA

WEATHER ROUNDUP FOR IOWA
NATIONAL WEATHER SERVICE DES MOINES IA
900 PM CDT SUN AUG 28 2016

NOTE: "FAIR" INDICATES FEW OR NO CLOUDS BELOW 12,000 FEET WITH NO
SIGNIFICANT WEATHER AND/OR OBSTRUCTIONS TO VISIBILITY.

* - THESE STATIONS ARE NOT NWS STATIONS...THUS NOT UNDER NWS
QUALITY CONTROL.  THEY ALSO DO NOT REPORT WEATHER SUCH
AS PRECIPITATION OR FOG.

IAZ001>003-012>014-020>022-031>034-043>046-290300-
   NORTHWEST IOWA

CITY           SKY/WX    TMP DP  RH WIND       PRES   REMARKS
CARROLL *      CLOUDY    70  66  88 E5        30.12R
CHEROKEE *     CLOUDY    71  66  84 S6        30.11R
DENISON *      CLOUDY    70  66  88 E3        30.09R
LE MARS *      PTCLDY    73  66  78 S7        30.09S
ORANGE CITY *  PTCLDY    72  66  83 S9        30.10S
SHELDON *      MOCLDY    75  70  83 S10G17    30.09R
SIOUX CITY     CLOUDY    76  63  64 S10       30.08S
SPENCER        CLOUDY    75  67  76 S7        30.12R
STORM LAKE *   CLOUDY    70  66  88 S7        30.13R
$$

IAZ055>058-069>071-079>083-090>094-290300-
   SOUTHWEST IOWA

CITY           SKY/WX    TMP DP  RH WIND       PRES   REMARKS
ATLANTIC *     CLOUDY    70  68  94 SE3       30.11R
AUDUBON *      PTCLDY    68  64  88 CALM      30.13S
CLARINDA *       N/A     70  68  94 MISG      30.13S
COUNCIL BLFS * CLOUDY    70  68  94 S7        30.11F
CRESTON *      CLOUDY    68  68 100 NE5       30.15R
HARLAN  *      CLOUDY    70  68  94 NE7       30.14R
LAMONI         CLOUDY    71  70  96 S3        30.12S
RED OAK *      CLOUDY    70  68  94 CALM      30.11R
SHENANDOAH *   CLOUDY    70 -38   1 SW7       30.12R
$$

IAZ047>049-059>061-072>074-084-290300-
   CENTRAL IOWA

CITY           SKY/WX    TMP DP  RH WIND       PRES   REMARKS
AMES           CLOUDY    72  70  93 W3        30.13R
ANKENY *         N/A    N/A N/A N/A MISG        N/A
BOONE *          N/A     72  66  83 CALM      30.13R
CHARITON *       N/A     73  73 100 MISG      30.13R
DES MOINES     CLOUDY    74  68  81 CALM      30.12R
GRINNELL*      CLOUDY    75  72  89 E6        30.15R
KNOXVILLE *    CLOUDY    72  68  88 CALM      30.12R
MARSHALLTOWN   CLOUDY    75  73  93 E6        30.13R
NEWTON *       CLOUDY    75  68  78 CALM      30.13R
PELLA *        CLOUDY    75  71  87 CALM      30.14R
PERRY *          N/A     70  69  97 CALM      30.12R
$$

IAZ004>006-015-016-023>025-035-036-290300-
   NORTH CENTRAL IOWA

CITY           SKY/WX    TMP DP  RH WIND       PRES   REMARKS
ALGONA *       CLOUDY    73  72  94 S5        30.13R
ESTHERVILLE    PTCLDY    71  70  96 S7        30.11R
FORT DODGE *   PTCLDY    73  66  78 S5        30.14R
MASON CITY     MOCLDY    74  72  93 E5        30.15R
FOREST CITY *    N/A    N/A N/A N/A MISG        N/A
WEBSTER CITY * PTCLDY    73  72  94 SW3       30.12R
IOWA FALLS *     N/A     75  72  91 SE3       30.16R
$$

IAZ007>011-017>019-026>030-037>042-050>054-066-290300-
   NORTHEAST IOWA

CITY           SKY/WX    TMP DP  RH WIND       PRES   REMARKS
CEDAR RAPIDS   CLOUDY    73  69  87 SE8       30.15R
CHARLES CITY * CLOUDY    75  75 100 E6        30.15R
CLINTON *      LGT RAIN  71  70  96 E6        30.17S
DECORAH *      CLOUDY    73  72  94 SE6       30.16S
DUBUQUE        CLOUDY    70  68  93 S7        30.18S
MONTICELLO *   CLOUDY    70  68  94 CALM      30.16F
OELWEIN *      CLOUDY    73  70  88 SE12      30.18R
WATERLOO       MOCLDY    77  70  79 SE7       30.14R
$$

IAZ064-065-067-068-078-290300-
   EAST CENTRAL IOWA

CITY           SKY/WX    TMP DP  RH WIND       PRES   REMARKS
DAVENPORT      LGT RAIN  72  70  93 S8        30.14F
IOWA CITY      CLOUDY    71  68  90 SE7       30.17F
MT. PLEASANT * PTCLDY    77  75  93 NE5       30.17R
MUSCATINE *    RAIN      73  70  88 NW12      30.20R
QUAD CITIES    CLOUDY    73  69  87 CALM      30.15F
$$

IAZ062-063-075>077-085>089-095>099-290300-
   SOUTHEAST IOWA

CITY           SKY/WX    TMP DP  RH WIND       PRES   REMARKS
BURLINGTON     PTCLDY    75  69  81 E6        30.15R
FAIRFIELD *    MOCLDY    73  68  83 E6        30.15R
FORT MADISON * PTCLDY    75  72  88 E3        30.17R
KEOKUK *       PTCLDY    75  72  88 E9G15     30.15R
OSKALOOSA *      N/A     74  70  85 SE6       30.14R
CENTERVILLE *    N/A     72  70  94 CALM      30.15R
OTTUMWA        MOCLDY    74  69  85 E5        30.14R
WASHINGTON *   CLOUDY    72  70  94 NE17G26   30.19R
$$

ABBREVIATIONS USED IN REMARKS
   TC - TEMPERATURES IN CELSIUS
  WCI - WIND CHILL INDEX
   HX - HEAT INDEX
  VSB - VISIBILITY
$$





USA.gov is the U.S. government's official web portal to all federal, state and local government web resources and services.